Regional Weather Roundup
Issued by NWS Albany, NY

Home | Current Version | Previous Version | Text Only | Print | Product List | Glossary On
Versions: 1 2 3 4 5 6 7 8 9 10 11 12 13 14 15 16 17 18 19 20 21 22 23 24 25 26 27 28 29 30 31 32 33 34 35 36 37 38 39 40 41 42 43 44 45 46 47 48 49 50
000
ASUS41 KALY 230310
RWRALY

NEW YORK STATE HOURLY WEATHER ROUNDUP
NATIONAL WEATHER SERVICE ALBANY NY
1100 PM EDT TUE JUL 22 2014

NOTE: "FAIR" INDICATES FEW OR NO CLOUDS BELOW 12,000 FEET WITH NO
SIGNIFICANT WEATHER AND/OR NO OBSTRUCTIONS TO VISIBILITY.

NYZ032-033-038>043-046>054-057>066-NYZ062>081-230400-
EAST


CITY           SKY/WX    TMP DP  RH WIND       PRES   REMARKS
ALBANY         PTCLDY    79  70  74 S7        29.98F
GLENS FALLS    CLEAR     72  68  87 CALM      29.96F
POUGHKEEPSIE   CLEAR     77  69  76 SE3       30.01F
NEWBURGH       CLEAR     77  70  78 W8        30.05S
MONTGOMERY     CLEAR     72  68  87 S5        30.03F
WHITE PLAINS   CLEAR     73  66  78 VRB3      30.05F
ISLIP          CLEAR     74  64  71 SW12      30.05F
NEW YORK CITY  PTCLDY    78  63  59 SW15      30.05S
CENTRAL PARK   CLEAR     78  64  61 VRB5      30.08S
$$

NYZ005>009-017-018-044>046-055-056-230400-
CENTRAL


CITY           SKY/WX    TMP DP  RH WIND       PRES   REMARKS
FULTON         CLEAR     75  69  81 S7        29.93F
SYRACUSE       MOCLDY    82  68  62 S10       29.94F
ROME           CLEAR     76  68  76 E3        29.97F
ELMIRA         CLEAR     79  70  74 VRB7      30.00F
BINGHAMTON     CLEAR     74  67  78 SW8       30.05F
MONTICELLO     CLEAR     72  68  88 SW5       30.08F
$$

NYZ026>034-041>043-230400-
NORTH


CITY           SKY/WX    TMP DP  RH WIND       PRES   REMARKS
WATERTOWN      CLEAR     73  62  68 W3        29.92F
FORT DRUM      NOT AVBL
MASSENA        CLEAR     68  62  81 S6        29.88F
SARANAC LAKE   CLEAR     62  59  90 CALM      29.98F
PLATTSBURGH    PTCLDY    69  67  93 W5        29.90F
$$

NYZ001>004-010>016-019>021-230400-
WEST


CITY           SKY/WX    TMP DP  RH WIND       PRES   REMARKS
NIAGARA FALLS  CLEAR     74  67  78 S8        29.95S
BUFFALO        PTCLDY    76  64  66 S5        29.97R
DUNKIRK        CLEAR     77  68  73 SW10      29.97F
JAMESTOWN      CLEAR     72  66  83 S6        30.04S
WELLSVILLE     CLEAR     76  67  73 S8        30.08F
ROCHESTER      CLEAR     76  68  76 W3        29.96S
PENN YAN       CLEAR     77  70  79 SW8       29.99F
$$

             KEY
       WCI = WIND CHILL INDEX
       VSB = VISIBILITY
       HX  = HEAT INDEX
$$


USA.gov is the U.S. government's official web portal to all federal, state and local government web resources and services.